N2RFA-13 Weather Reports


Display with metric or nautical units.
time (UTC)temp
F
wind
direction
speed
MPH
gust
MPH
rain 1hr
in
rain 24hr
in
rain mn
in
humidity
%
barometer
mb
20260904164542 85 159 0.0 4.0 0.00 0.00 0.00 61 1012.6
20260904163042 84 120 0.0 4.0 0.00 0.00 0.00 65 1012.6
20260904161539 83 194 1.0 3.0 0.00 0.00 0.00 64 1012.6
20260904160048 83 198 1.0 6.0 0.00 0.00 0.00 67 1012.6
20260904154538 84 194 0.0 2.0 0.00 0.00 0.00 69 1012.6
20260904153035 84 124 0.0 4.0 0.00 0.00 0.00 70 1012.8
20260904151533 83 112 1.0 4.0 0.00 0.00 0.00 69 1013.1
20260904150041 83 124 1.0 3.0 0.00 0.00 0.00 72 1013.2
20260904144525 0 0.0 0.0 0.00 0.00 0.00 1013.1
20260904143021 0 0.0 0.0 0.00 0.00 0.00 1013.0
20260904141525 0 0.0 0.0 0.00 0.00 0.00 1013.0
20260904140024 0 0.0 0.0 0.00 0.00 0.00 1012.8
20260904134508 0 0.0 0.0 0.00 0.00 0.00 1012.9
20260904133006 0 0.0 0.0 0.00 0.00 0.00 1012.8
20260904131600 0 0.0 0.0 0.00 0.00 0.00 1012.9
20260904130057 0 0.0 0.0 0.00 0.00 0.00 1012.7
20260904124600 0 0.0 0.0 0.00 0.00 0.00 1012.8
20260904123047 0 0.0 0.0 0.00 0.00 0.00 1012.7
20260904121543 0 0.0 0.0 0.00 0.00 0.00 1012.5
20260904120038 0 0.0 0.0 0.00 0.00 0.00 1012.3
20260904114534 0 0.0 0.0 0.00 0.00 0.00 1012.3
20260904113034 0 0.0 0.0 0.00 0.00 0.00 1012.3
20260904111536 0 0.0 0.0 0.00 0.00 0.00 1012.2
20260904110021 0 0.0 0.0 0.00 0.00 0.00 1012.0
20260904104516 0 0.0 0.0 0.00 0.00 0.00 1012.1
20260904103018 0 0.0 0.0 0.00 0.00 0.00 1012.1
20260904101507 0 0.0 0.0 0.00 0.00 0.00 1011.9
20260904100003 70 150 0.0 0.0 0.00 0.00 0.00 97 1011.8
20260904094503 70 150 0.0 0.0 0.00 0.00 0.00 97 1011.7
20260904093000 70 150 0.0 0.0 0.00 0.00 0.00 97 1011.6
20260904091501 70 150 0.0 0.0 0.00 0.00 0.00 97 1011.6
20260904084600 70 150 0.0 0.0 0.00 0.00 0.00 97 1011.5
20260904083058 70 150 0.0 0.0 0.00 0.00 0.00 97 1011.7
20260904081558 70 150 0.0 0.0 0.00 0.00 0.00 97 1011.7
20260904080058 70 150 0.0 0.0 0.00 0.00 0.00 97 1011.4
20260904074610 70 150 0.0 0.0 0.00 0.00 0.00 97 1011.5
20260904073100 71 150 0.0 0.0 0.00 0.00 0.00 97 1011.2
20260904071555 71 150 0.0 0.0 0.00 0.00 0.00 97 1011.2
20260904070056 71 150 0.0 0.0 0.00 0.00 0.00 97 1011.1
20260904064554 71 150 0.0 0.0 0.00 0.00 0.00 97 1011.0
20260904063101 71 150 0.0 0.0 0.00 0.00 0.00 97 1011.3
20260904061549 71 150 0.0 2.0 0.00 0.00 0.00 96 1011.6
20260904060045 71 155 0.0 3.0 0.00 0.00 0.00 98 1012.3
20260904054544 70 125 0.0 0.0 0.00 0.00 0.00 97 1012.1
20260904053042 70 125 0.0 0.0 0.00 0.00 0.00 97 1012.2
20260904051557 71 125 0.0 0.0 0.00 0.00 0.00 97 1012.4
20260904050041 71 125 0.0 0.0 0.00 0.00 0.00 97 1012.2
20260904044538 71 125 0.0 0.0 0.00 0.00 0.00 97 1012.1
20260904043037 71 125 0.0 0.0 0.00 0.00 0.00 97 1012.3
20260904041534 71 125 0.0 0.0 0.00 0.00 0.00 97 1012.4
20260904040034 71 125 0.0 0.0 0.00 0.00 0.00 97 1012.7
20260904034526 71 125 0.0 0.0 0.00 0.00 0.00 97 1012.8
20260904033027 71 125 0.0 0.0 0.00 0.00 0.00 96 1012.8
20260904031525 72 125 0.0 0.0 0.00 0.00 0.00 96 1012.6
20260904030025 72 125 0.0 0.0 0.00 0.00 0.00 97 1012.5
20260904024523 72 125 0.0 0.0 0.00 0.00 0.00 96 1012.5
20260904023022 72 125 0.0 0.0 0.00 0.00 0.00 96 1013.2
20260904021520 72 125 0.0 0.0 0.00 0.00 0.00 96 1013.2
20260904020020 73 125 0.0 0.0 0.00 0.00 0.00 96 1013.6
20260904014519 73 125 0.0 0.0 0.00 0.00 0.00 96 1013.5
20260904013021 73 125 0.0 0.0 0.00 0.00 0.00 96 1013.6
20260904011519 73 125 0.0 0.0 0.00 0.00 0.00 96 1013.6
20260904010034 73 125 0.0 0.0 0.00 0.00 0.00 96 1013.5
20260904004515 73 125 0.0 0.0 0.00 0.00 0.00 95 1013.3
20260904003014 74 125 0.0 0.0 0.00 0.00 0.00 96 1013.2
20260904001513 74 125 0.0 1.0 0.00 0.00 0.00 95 1013.0
20260904000016 74 125 0.0 0.0 0.00 0.00 0.00 95 1013.2
20260903234511 75 125 0.0 0.0 0.00 0.00 0.00 94 1013.0
20260903233008 75 125 0.0 0.0 0.00 0.00 0.00 94 1012.8
20260903231509 76 125 0.0 0.0 0.00 0.00 0.00 94 1012.7
20260903230008 76 125 0.0 0.0 0.00 0.00 0.00 93 1012.6
20260903224506 76 125 0.0 0.0 0.00 0.00 0.00 93 1012.7
20260903223009 76 125 0.0 0.0 0.00 0.00 0.00 91 1012.7
20260903221505 77 125 0.0 0.0 0.00 0.00 0.00 90 1012.8
20260903220004 77 125 0.0 1.0 0.00 0.00 0.00 90 1012.7
20260903214503 77 126 0.0 1.0 0.00 0.00 0.00 90 1012.6
20260903213009 77 125 0.0 1.0 0.00 0.00 0.00 90 1012.4
20260903211501 78 125 0.0 1.0 0.00 0.00 0.00 89 1012.5
20260903210001 78 125 0.0 0.0 0.00 0.00 0.00 89 1012.6
20260903204619 78 125 0.0 1.0 0.00 0.00 0.00 88 1012.7
20260903203100 79 125 0.0 1.0 0.00 0.00 0.00 87 1012.5
20260903201559 80 175 0.0 1.0 0.00 0.00 0.00 84 1012.7
20260903194557 81 106 0.0 3.0 0.00 0.00 0.00 81 1012.7
20260903193056 81 160 0.0 1.0 0.00 0.00 0.00 82 1012.9
20260903191554 82 99 0.0 1.0 0.00 0.00 0.00 81 1013.0
20260903190053 82 128 0.0 2.0 0.00 0.00 0.00 78 1013.2
20260903184552 82 160 0.0 1.0 0.00 0.00 0.00 81 1013.3
20260903183049 83 114 0.0 4.0 0.00 0.00 0.00 79 1013.7
20260903181549 83 60 1.0 4.0 0.00 0.00 0.00 76 1013.8
20260903180050 84 110 0.0 3.0 0.00 0.00 0.00 75 1013.9
20260903174547 84 124 0.0 4.0 0.00 0.00 0.00 75 1013.7
20260903173044 83 146 1.0 7.0 0.00 0.00 0.00 77 1014.1
20260903171545 83 138 0.0 4.0 0.00 0.00 0.00 77 1014.5
20260903170037 82 115 0.0 3.0 0.00 0.00 0.00 78 1014.7